Regional Weather Roundup
Issued by NWS

Home | Current Version | Previous Version | Text Only | Print | Product List | Glossary On
Versions: 1 2 3 4 5 6 7 8 9 10 11 12 13 14 15 16 17 18 19 20 21 22 23 24 25 26 27 28 29 30 31 32 33 34 35 36 37 38 39 40 41 42 43 44 45 46 47 48 49 50
000
ASUS46 KPQR 230610
RWROR

OREGON REGIONAL WEATHER ROUNDUP
NATIONAL WEATHER SERVICE PORTLAND OR
1100 PM PDT FRI MAY 22 2015

NOTE: "FAIR" INDICATES FEW OR NO CLOUDS BELOW 12,000 FEET WITH
NO SIGNIFICANT WEATHER AND/OR OBSTRUCTIONS TO VISIBILITY.

ORZ001>013-230700-
NORTHWEST OREGON


CITY           SKY/WX    TMP DP  RH WIND       PRES   REMARKS
ASTORIA        CLOUDY    53  51  93 SW5       30.11R
6HR MIN TEMP:  53; 6HR MAX TEMP:  57; 6HR PCP:  0.01;

NEWPORT        MOCLDY    52  50  93 S3        30.16S FOG
PORTLAND       CLOUDY    57  50  77 N5        30.10R
6HR MIN TEMP:  57; 6HR MAX TEMP:  60;

VANCOUVER WA   CLOUDY    57  48  72 N3        30.09R
6HR MIN TEMP:  57; 6HR MAX TEMP:  60;

SCAPPOOSE      CLOUDY    56  48  74 NW6       30.09R
6HR MIN TEMP:  56; 6HR MAX TEMP:  60;

HILLSBORO      CLOUDY    56  50  80 N5        30.09R
6HR MIN TEMP:  56; 6HR MAX TEMP:  60;

AURORA         CLOUDY    54  50  86 SW3       30.10R
6HR MIN TEMP:  54; 6HR MAX TEMP:  58; 6HR PCP: TRACE;

MCMINNVILLE    CLOUDY    54  48  80 SW6       30.11R
6HR MIN TEMP:  54; 6HR MAX TEMP:  63; 6HR PCP: TRACE;

SALEM          CLOUDY    54  48  80 CALM      30.10R
6HR MIN TEMP:  54; 6HR MAX TEMP:  59; 6HR PCP:  0.01;

CORVALLIS      CLOUDY    52  46  82 W9        30.12R
EUGENE         MOCLDY    54  47  77 W8        30.12R
6HR MIN TEMP:  53; 6HR MAX TEMP:  65;

$$

ORZ021-028-230700-
SOUTHWEST OREGON


CITY           SKY/WX    TMP DP  RH WIND       PRES   REMARKS
NORTH BEND     CLOUDY    54  52  94 N3        30.17R
6HR MIN TEMP:  54; 6HR MAX TEMP:  57;

BROOKINGS      CLEAR     50  50 100 CALM      30.11R
ROSEBURG       CLEAR     54  46  74 CALM      30.12R
6HR MIN TEMP:  54; 6HR MAX TEMP:  66;

SEXTON SUMMIT  FOG       42  42 100 N9        30.10R VSB 1/2
6HR MIN TEMP:  42; 6HR MAX TEMP:  56;

MEDFORD        CLEAR     55  46  71 CALM      30.08R
6HR MIN TEMP:  54; 6HR MAX TEMP:  69;

$$

ORZ014>016-041-230700-
COLUMBIA GORGE


CITY           SKY/WX    TMP DP  RH WIND       PRES   REMARKS
TROUTDALE      CLOUDY    58  49  72 CALM      30.08R
6HR MIN TEMP:  58; 6HR MAX TEMP:  59; 6HR PCP:  0.03;

THE DALLES     MOCLDY    61  46  57 NW13      29.97R
6HR MIN TEMP:  60; 6HR MAX TEMP:  68;

$$

ORZ029>031-041-044-049-050-061>064-502-503-505>511-230700-
EASTERN OREGON


CITY           SKY/WX    TMP DP  RH WIND       PRES   REMARKS
REDMOND        CLOUDY    51  45  79 NW6       30.02R
6HR MIN TEMP:  51; 6HR MAX TEMP:  56; 6HR PCP:  0.11;

BEND           CLOUDY    52  43  71 NW5       30.03R
PRINEVILLE     CLOUDY    52  48  87 W6        30.01S
KLAMATH FALLS  CLOUDY    48  42  80 W7        30.04S
6HR MIN TEMP:  48; 6HR MAX TEMP:  61;

LAKEVIEW       CLOUDY    52  46  82 N7        30.03S
HERMISTON      CLOUDY    62  49  62 VRB3      29.93R
6HR MIN TEMP:  62; 6HR MAX TEMP:  77;

PENDLETON      CLOUDY    59  49  69 W5        29.93R
6HR MIN TEMP:  59; 6HR MAX TEMP:  68;

JOHN DAY       CLOUDY    55  51  86 W6        29.98S
MEACHAM        CLOUDY    54  51  90 CALM      29.97R
6HR MIN TEMP:  54; 6HR MAX TEMP:  59; 6HR PCP:  0.11;

LA GRANDE      CLOUDY    61  45  55 NW12G17   29.91R
6HR MIN TEMP:  61; 6HR MAX TEMP:  63;

BAKER CITY     LGT RAIN  55  52  89 N9        29.95R
6HR MIN TEMP:  55; 6HR MAX TEMP:  64; 6HR PCP:  0.03;

BURNS          MOCLDY    52  47  83 W13       29.95S
6HR MIN TEMP:  52; 6HR MAX TEMP:  63;

ROME             N/A     55  49  80 E7        29.93S
6HR MIN TEMP:  55; 6HR MAX TEMP:  59;

ONTARIO        LGT RAIN  61  54  77 N7        29.88S
6HR MIN TEMP:  61; 6HR MAX TEMP:  77; 6HR PCP:  0.01;

$$


USA.gov is the U.S. government's official web portal to all federal, state and local government web resources and services.